Location: Peebles
(55.6412°N, 3.1714°W)
Time: 14:41:14
(UTC+01:00)

IGS 5A - Pass Details

Date: 26 September 2021
Orbit: 584 x 587 km, 97.5° (Epoch: 05 October)

Event Time Altitude Azimuth Distance (km) Brightness Sun altitude
Exits shadow 20:50:45 30° 120° (ESE) 1,055 4.2 -16.0°
Maximum altitude 20:52:19 46° 67° (ENE) 798 3.8 -16.3°
Drops below altitude 10° 20:56:18 10° 355° (N) 1,920 6.4 -16.8°
Sets 20:58:31 0° 349° (N) 2,825 7.4 -17.1°
